Alyeska Resort
Max's Hourly Weather Roundup
ALYESKA_MAX 3/28/2017
Click Here for Graph

        DATE  TIME   Air  Wind  Wind  Wind  BATT   Rel
                    Temp   Spd   Dir  Gust  Volt  Hum%
                      F   MPH   AVG   MPH   AVG   AVG

   3/28/2017 05:00    21     2   139     6 12.85   100
   3/28/2017 04:00    21     1   143     8 12.87   100
   3/28/2017 03:00    20     0   148     0 12.89   100
   3/28/2017 02:00    20     0   152     0 12.91   100
   3/28/2017 01:00    19     0   175     0 12.93   100
   3/27/2017 24:00    20     1    98     7 12.96   100
   3/27/2017 23:00    21     0   238     5 13.00   100
   3/27/2017 22:00    21     0   218     0 13.06   100
   3/27/2017 21:00    21     0   228     0 13.21   100
   3/27/2017 20:00    21     0   246     0 13.78    97
   3/27/2017 19:00    24     0   298     0 13.79    89
   3/27/2017 18:00    22     0   219     0 13.76    94
   3/27/2017 17:00    23     0   102     0 13.72    91
   3/27/2017 16:00    24     0   318     0 13.70    85
   3/27/2017 15:00    22     0   324     0 13.70    86
   3/27/2017 14:00    20     0   270     0 13.74    85
   3/27/2017 13:00    21     0   250     0 13.76    80
   3/27/2017 12:00    20     0    37     0 13.82    84
   3/27/2017 11:00    19     0   136     2 13.88    86
   3/27/2017 10:00    19     0   217     0 13.87    86
   3/27/2017 09:00    17     0   178     6 12.90    88
   3/27/2017 08:00    17     0   224     0 12.80    89
   3/27/2017 07:00    18     0   191     0 12.82    88
   3/27/2017 06:00    18     0   321     0 12.83    84


Click Here for Graph